Powrót do katalogu

STARLINK-32658

AktywnyŁącznośćVLEO
NORAD 62999·PAYLOAD·🇺🇸 United States

Wystrzelony Feb 11, 2025 z Cape Canaveral Space Force Station

Loading…

Następne Przeloty (najbliższe 24 godziny)

TLE

ŚwieżeSource: CelesTrak SupGP

Epoka: Sep 14, 2026, 14:01 UTC

1 62999C 25031U   26257.58451389  .00037821  00000+0  13702-2 0  2573
2 62999  43.0019 156.4169 0001432 263.9867 175.8664 15.27552814    15

Śledź STARLINK-32658 w czasie rzeczywistym z AllMySat

Download on the App Store